Voltar ao catálogo

STARLINK-36212

AtivoComunicaçõesVLEO
NORAD 67216·PAYLOAD·🇺🇸 United States

Lançado Dec 17, 2025 de Vandenberg Space Force Base

Loading…

Próximas Passagens (próximas 24 horas)

TLE

AtualizadoSource: CelesTrak SupGP

Época: Sep 15, 2026, 03:22 UTC

1 67216C 25304AA  26258.14076389 -.00043547  00000+0 -36521-2 0  2588
2 67216  70.0011  56.8563 0002675 271.2886 340.5221 14.98325685    19

Acompanhe STARLINK-36212 em tempo real com AllMySat

Download on the App Store